This is the latest recevied weather packets stored in our database for station/object K9YK-13. If no packets are shown the sender has not sent any weather packets the latest 10 day(s).
| Time | Temp. | Humidity | Pressure | Rain* | Wind** | Luminosity | Snow |
|---|---|---|---|---|---|---|---|
| 1777412473 | 17.78° C | 68% | 0 hPa | 0 mm | - | - | - |
| 1777412173 | 18.33° C | 67% | 0 hPa | 0 mm | - | - | - |
| 1777411873 | 17.78° C | 69% | 0 hPa | 0 mm | - | - | - |
| 1777411573 | 17.78° C | 69% | 0 hPa | 0 mm | - | - | - |
| 1777411273 | 17.22° C | 70% | 0 hPa | 0 mm | - | - | - |
| 1777410973 | 17.78° C | 69% | 0 hPa | 0 mm | - | - | - |
| 1777410673 | 17.22° C | 68% | 0 hPa | 0 mm | - | - | - |
| 1777410373 | 18.33° C | 66% | 0 hPa | 0 mm | - | - | - |
| 1777410073 | 17.78° C | 69% | 0 hPa | 0 mm | - | - | - |
| 1777409773 | 18.33° C | 68% | 0 hPa | 0 mm | - | - | - |
| 1777409473 | 17.78° C | 69% | 0 hPa | 0 mm | - | - | - |
| 1777409174 | 17.78° C | 69% | 0 hPa | 0 mm | - | - | - |
| 1777408873 | 17.78° C | 72% | 0 hPa | 0 mm | - | - | - |
| 1777408573 | 17.78° C | 72% | 0 hPa | 0 mm | - | - | - |
| 1777408274 | 17.22° C | 73% | 0 hPa | 0 mm | - | - | - |
| 1777407973 | 16.67° C | 72% | 0 hPa | 0 mm | - | - | - |
| 1777407673 | 16.11° C | 71% | 0 hPa | 0 mm | - | - | - |
| 1777407373 | 16.11° C | 74% | 0 hPa | 0 mm | - | - | - |
| 1777407073 | 15.56° C | 75% | 0 hPa | 0 mm | - | - | - |
| 1777406773 | 16.11° C | 76% | 0 hPa | 0 mm | - | - | - |
| 1777406474 | 16.11° C | 74% | 0 hPa | 0 mm | - | - | - |
| 1777406173 | 16.67° C | 75% | 0 hPa | 0 mm | - | - | - |
| 1777405873 | 16.11° C | 75% | 0 hPa | 0 mm | - | - | - |
| 1777405573 | 15.56° C | 73% | 0 hPa | 0 mm | - | - | - |
| 1777405273 | 15.56° C | 73% | 0 hPa | 0 mm | - | - | - |
* Rain latest hour (hover to see other rain measurements)
** Current wind speed in m/s (hover to see current wind gust speed)